• In Deutschland
  • Länderverzeichnis
  • Für 7 Tage
  • Wassertemperatur
  • Satellitenkarten
  • Wetterkarte
  • Widgets
  • user-avatar
    Anmelden

    Stündliche Wetter Stuttgart

    Heute, 16 Januar, Dienstag

    Zeit Temperatur Niederschläge Wind Luftdruck Luftfeuchtigkeit
    00:00 +4°C° 0,8 mm 7 m/S 725 mmHg 79%
    01:00 +4°C° 0 mm 8 m/S 725 mmHg 78%
    02:00 +4°C° 0,4 mm 7 m/S 725 mmHg 80%
    03:00 +4°C° 0,4 mm 7 m/S 724 mmHg 82%
    04:00 +4°C° 0,4 mm 7 m/S 724 mmHg 84%
    05:00 +5°C° 0,8 mm 7 m/S 723 mmHg 85%
    06:00 +5°C° 0,8 mm 7 m/S 723 mmHg 86%
    07:00 +5°C° 0,8 mm 7 m/S 722 mmHg 86%
    08:00 +5°C° 0,8 mm 7 m/S 722 mmHg 85%
    09:00 +5°C° 0,8 mm 8 m/S 722 mmHg 83%
    10:00 +6°C° 0,8 mm 8 m/S 722 mmHg 82%
    11:00 +6°C° 1 mm 8 m/S 722 mmHg 80%
    12:00 +6°C° 1 mm 8 m/S 722 mmHg 78%
    13:00 +6°C° 1 mm 9 m/S 722 mmHg 76%
    14:00 +5°C° 0,7 mm 8 m/S 722 mmHg 78%
    15:00 +4°C° 0,7 mm 7 m/S 723 mmHg 79%
    16:00 +4°C° 0,7 mm 6 m/S 723 mmHg 81%
    17:00 +3°C° 0,8 mm 6 m/S 723 mmHg 81%
    18:00 +3°C° 0,8 mm 6 m/S 723 mmHg 82%
    19:00 +3°C° 0,8 mm 6 m/S 723 mmHg 83%
    20:00 +3°C° 0,6 mm 6 m/S 723 mmHg 82%
    21:00 +3°C° 0,6 mm 6 m/S 723 mmHg 82%
    22:00 +3°C° 0,6 mm 7 m/S 723 mmHg 81%
    23:00 +3°C° 0,5 mm 7 m/S 722 mmHg 81%

    Morgen, 17 Januar, Mittwoch

    Zeit Temperatur Niederschläge Wind Luftdruck Luftfeuchtigkeit
    00:00 +2°C° 0,5 mm 7 m/S 722 mmHg 80%
    01:00 +2°C° 0,5 mm 7 m/S 722 mmHg 80%
    02:00 +2°C° 0,5 mm 7 m/S 722 mmHg 80%
    03:00 +2°C° 0,5 mm 7 m/S 722 mmHg 81%
    04:00 0°C° 0,5 mm 7 m/S 722 mmHg 81%
    05:00 0°C° 0,5 mm 7 m/S 723 mmHg 80%
    06:00 -1°C° 0,5 mm 7 m/S 723 mmHg 80%
    07:00 -1°C° 0,5 mm 7 m/S 724 mmHg 79%
    08:00 -2°C° 0,2 mm 7 m/S 725 mmHg 76%
    09:00 -2°C° 0,2 mm 7 m/S 726 mmHg 74%
    10:00 -2°C° 0,2 mm 8 m/S 727 mmHg 71%
    11:00 -2°C° 0,1 mm 8 m/S 727 mmHg 70%
    12:00 -1°C° 0,1 mm 8 m/S 728 mmHg 69%
    13:00 -1°C° 0,1 mm 8 m/S 729 mmHg 68%
    14:00 -1°C° 0,1 mm 8 m/S 729 mmHg 69%
    15:00 -1°C° 0,1 mm 8 m/S 730 mmHg 71%
    16:00 -1°C° 0,1 mm 8 m/S 730 mmHg 73%
    17:00 -1°C° 0,1 mm 8 m/S 731 mmHg 75%
    18:00 -1°C° 0,1 mm 8 m/S 731 mmHg 76%
    19:00 -1°C° 0,1 mm 8 m/S 732 mmHg 78%
    20:00 -1°C° 0,1 mm 8 m/S 732 mmHg 79%
    21:00 -1°C° 0,1 mm 8 m/S 733 mmHg 80%
    22:00 -1°C° 0,1 mm 7 m/S 733 mmHg 81%
    23:00 -1°C° 0,2 mm 7 m/S 733 mmHg 81%

    übermorgen, 18 Januar, Donnerstag

    Zeit Temperatur Niederschläge Wind Luftdruck Luftfeuchtigkeit
    00:00 -1°C° 0,2 mm 7 m/S 733 mmHg 82%
    01:00 -1°C° 0,2 mm 7 m/S 733 mmHg 82%
    02:00 -1°C° 0,6 mm 7 m/S 733 mmHg 83%
    03:00 -1°C° 0,6 mm 7 m/S 732 mmHg 84%
    04:00 -1°C° 0,6 mm 7 m/S 732 mmHg 85%
    05:00 0°C° 0,7 mm 8 m/S 730 mmHg 84%
    06:00 +1°C° 0,7 mm 9 m/S 729 mmHg 82%
    07:00 +1°C° 0,7 mm 11 m/S 728 mmHg 81%
    08:00 +2°C° 0,3 mm 11 m/S 728 mmHg 81%
    09:00 +2°C° 0,3 mm 11 m/S 727 mmHg 82%
    10:00 +3°C° 0,3 mm 11 m/S 727 mmHg 82%
    11:00 +3°C° 0,8 mm 11 m/S 727 mmHg 83%
    12:00 +3°C° 0,8 mm 10 m/S 726 mmHg 84%
    13:00 +5°C° 0,8 mm 10 m/S 726 mmHg 85%
    14:00 +5°C° 1 mm 10 m/S 726 mmHg 84%
    15:00 +5°C° 1 mm 10 m/S 725 mmHg 84%
    16:00 +5°C° 1 mm 10 m/S 725 mmHg 84%
    17:00 +5°C° 2,7 mm 9 m/S 725 mmHg 86%
    18:00 +5°C° 2,7 mm 8 m/S 725 mmHg 89%
    19:00 +5°C° 2,7 mm 6 m/S 725 mmHg 91%
    20:00 +4°C° 2,8 mm 6 m/S 725 mmHg 92%
    21:00 +4°C° 2,8 mm 6 m/S 725 mmHg 93%
    22:00 +5°C° 2,8 mm 5 m/S 725 mmHg 93%
    23:00 +5°C° 1,6 mm 5 m/S 725 mmHg 93%

    19 Januar, Freitag

    Zeit Temperatur Niederschläge Wind Luftdruck Luftfeuchtigkeit
    00:00 +5°C° 1,6 mm 5 m/S 725 mmHg 93%
    01:00 +6°C° 1,6 mm 4 m/S 725 mmHg 93%
    02:00 +5°C° 1,9 mm 5 m/S 725 mmHg 92%
    03:00 +5°C° 1,9 mm 5 m/S 725 mmHg 91%
    04:00 +3°C° 1,9 mm 5 m/S 725 mmHg 90%
    05:00 +3°C° 0,3 mm 4 m/S 725 mmHg 89%
    06:00 +3°C° 0,3 mm 4 m/S 726 mmHg 88%
    07:00 +1°C° 0,3 mm 4 m/S 726 mmHg 87%
    08:00 +1°C° 0 mm 4 m/S 727 mmHg 87%
    09:00 +1°C° 0 mm 4 m/S 728 mmHg 86%
    10:00 +1°C° 0 mm 4 m/S 729 mmHg 85%
    11:00 +1°C° 0 mm 4 m/S 729 mmHg 82%
    12:00 +3°C° 0 mm 4 m/S 729 mmHg 79%
    13:00 +3°C° 0 mm 4 m/S 729 mmHg 75%
    14:00 +3°C° 0,1 mm 3 m/S 729 mmHg 77%
    15:00 +3°C° 0,1 mm 3 m/S 729 mmHg 79%
    16:00 +4°C° 0,1 mm 2 m/S 729 mmHg 81%
    17:00 +2°C° 0,1 mm 3 m/S 729 mmHg 83%
    18:00 +1°C° 0,1 mm 3 m/S 729 mmHg 85%
    19:00 +1°C° 0,1 mm 3 m/S 729 mmHg 86%
    20:00 +1°C° 0,2 mm 3 m/S 729 mmHg 87%
    21:00 +1°C° 0,2 mm 3 m/S 728 mmHg 88%
    22:00 +1°C° 0,2 mm 3 m/S 728 mmHg 89%
    23:00 +1°C° 0,4 mm 3 m/S 728 mmHg 89%

    20 Januar, Samstag

    Zeit Temperatur Niederschläge Wind Luftdruck Luftfeuchtigkeit
    00:00 +1°C° 0,4 mm 3 m/S 728 mmHg 90%
    01:00 0°C° 0,4 mm 3 m/S 728 mmHg 91%
    02:00 0°C° 0,3 mm 3 m/S 728 mmHg 92%
    03:00 +1°C° 0,3 mm 2 m/S 728 mmHg 93%
    04:00 +1°C° 0,3 mm 2 m/S 727 mmHg 94%
    05:00 +1°C° 0,3 mm 2 m/S 727 mmHg 94%
    06:00 -1°C° 0,3 mm 2 m/S 728 mmHg 95%
    07:00 -1°C° 0,3 mm 2 m/S 728 mmHg 95%
    08:00 -1°C° 0,1 mm 2 m/S 728 mmHg 94%
    09:00 +2°C° 0,1 mm 1 m/S 729 mmHg 93%
    10:00 +2°C° 0,1 mm 1 m/S 729 mmHg 92%
    11:00 +1°C° 0,1 mm 2 m/S 729 mmHg 90%
    12:00 +1°C° 0,1 mm 2 m/S 730 mmHg 88%
    13:00 +2°C° 0,1 mm 2 m/S 730 mmHg 86%
    14:00 +1°C° 0,1 mm 2 m/S 730 mmHg 86%
    15:00 +1°C° 0,1 mm 2 m/S 731 mmHg 86%
    16:00 +1°C° 0,1 mm 2 m/S 731 mmHg 86%
    17:00 -1°C° 0 mm 2 m/S 731 mmHg 88%
    18:00 -2°C° 0 mm 2 m/S 732 mmHg 90%
    19:00 0°C° 0 mm 1 m/S 733 mmHg 92%
    20:00 -3°C° 0 mm 2 m/S 733 mmHg 93%
    21:00 -3°C° 0 mm 2 m/S 733 mmHg 93%
    22:00 -3°C° 0 mm 2 m/S 734 mmHg 94%
    23:00 -1°C° 0 mm 1 m/S 734 mmHg 94%

    21 Januar, Sonntag

    Zeit Temperatur Niederschläge Wind Luftdruck Luftfeuchtigkeit
    00:00 -1°C° 0 mm 1 m/S 734 mmHg 93%
    01:00 -1°C° 0 mm 1 m/S 734 mmHg 93%
    02:00 -2°C° 0 mm 1 m/S 734 mmHg 93%
    03:00 -2°C° 0 mm 1 m/S 734 mmHg 92%
    04:00 -2°C° 0 mm 1 m/S 734 mmHg 91%
    05:00 -2°C° 0 mm 1 m/S 735 mmHg 91%
    06:00 -2°C° 0 mm 1 m/S 735 mmHg 90%
    07:00 -2°C° 0 mm 1 m/S 735 mmHg 90%
    08:00 -1°C° 0 mm 1 m/S 736 mmHg 88%
    09:00 -1°C° 0 mm 1 m/S 736 mmHg 86%
    10:00 0°C° 0 mm 1 m/S 736 mmHg 84%
    11:00 -1°C° 0 mm 2 m/S 736 mmHg 82%
    12:00 -1°C° 0 mm 2 m/S 736 mmHg 81%
    13:00 +1°C° 0 mm 2 m/S 737 mmHg 79%
    14:00 +1°C° 0 mm 2 m/S 737 mmHg 80%
    15:00 +1°C° 0 mm 2 m/S 737 mmHg 80%
    16:00 +1°C° 0 mm 2 m/S 737 mmHg 81%
    17:00 -1°C° 0 mm 2 m/S 738 mmHg 84%
    18:00 0°C° 0 mm 1 m/S 738 mmHg 86%
    19:00 0°C° 0 mm 1 m/S 739 mmHg 89%
    20:00 0°C° 0 mm 1 m/S 739 mmHg 89%
    21:00 0°C° 0 mm 1 m/S 739 mmHg 89%
    22:00 0°C° 0 mm 1 m/S 740 mmHg 89%
    23:00 -1°C° 0 mm 1 m/S 740 mmHg 89%
    Mehr zeigen